Location: Toronto
(43.6672°N, 79.4170°W)
Time: 15:04:02
(UTC-04:00)

ISS - Visible Passes

Search period start: 17 April 2014 00:00
Search period end: 27 April 2014 00:00
Orbit: 414 x 419 km, 51.6° (Epoch: 17 April)

Date Brightness Start Highest point End Pass type
(mag) Time Alt. Az. Time Alt. Az. Time Alt. Az.
17 Apr -1.2 20:40:13 10° NW 20:42:55 22° N 20:45:37 10° ENE visible
17 Apr -2.5 22:16:52 10° NW 22:19:43 50° N 22:19:43 50° N visible
18 Apr -2.3 21:28:36 10° NW 21:31:48 39° NNE 21:33:16 24° ENE visible
18 Apr -0.4 23:05:25 10° WNW 23:06:11 15° WNW 23:06:11 15° WNW visible
19 Apr -1.8 20:40:19 10° NW 20:43:19 29° NNE 20:46:20 10° E visible
19 Apr -2.6 22:16:56 10° WNW 22:19:43 51° W 22:19:43 51° W visible
20 Apr -3.3 21:28:31 10° WNW 21:31:54 82° NNE 21:33:16 33° ESE visible
21 Apr -2.8 20:40:08 10° NW 20:43:26 53° NNE 20:46:43 10° ESE visible
21 Apr -1.4 22:17:15 10° W 22:19:43 23° SW 22:19:43 23° SW visible
22 Apr -2.3 21:28:29 10° WNW 21:31:38 38° SW 21:33:17 22° SSE visible
23 Apr -3.0 20:39:51 10° WNW 20:43:11 66° SW 20:46:30 10° SE visible
24 Apr -0.7 21:28:59 10° W 21:31:00 15° SW 21:33:00 10° S visible
25 Apr -1.4 20:39:46 10° W 20:42:35 25° SW 20:45:22 10° SSE visible
